Latest Weather Observations for Parafield

IDS60901

Issued at 3:21 am CDT Tuesday 24 January 2017 (issued every 10 minutes, with the page automatically refreshed every 10 minutes)

About weather observations | Map of Adelaide area stations | Latest observations for Adelaide area | Other Formats
Station Details ID: 023013 Name: PARAFIELD AIRPORT Lat: -34.80 Lon: 138.63 Height: 9.5 m
Data from the previous 72 hours. | See also: Recent months at Parafield
Date/Time
CDT
Temp
°C
App
Temp
°C
Dew
Point
°C
Rel
Hum
%
Delta-T
°C
Wind Press
QNH
hPa
Press
MSL
hPa
Rain since
9am
mm
Dir  Spd
km/h
Gust
km/h
Spd
kts
Gust
kts
24/03:02am 18.9 17.1 16.0 83 1.7 SSW 20 28 11 15 1011.4 1011.4 3.0
24/03:00am 18.9 16.7 16.0 83 1.7 SSW 22 32 12 17 1011.3 1011.3 3.0
24/02:37am 19.2 17.3 16.6 85 1.6 SSW 22 33 12 18 1011.1 1011.1 3.0
24/02:30am 19.3 16.2 16.5 84 1.7 SW 28 37 15 20 1010.9 1010.9 3.0
24/02:00am 19.4 16.3 16.6 84 1.7 SW 28 39 15 21 1010.5 1010.5 3.0
24/01:52am 19.6 17.0 16.8 84 1.7 SW 26 37 14 20 1010.6 1010.6 3.0
24/01:30am 19.7 18.5 18.4 92 0.8 SSW 22 33 12 18 1010.7 1010.7 3.0
24/01:00am 20.1 19.4 19.6 97 0.3 SSW 22 32 12 17 1010.5 1010.5 3.0
24/12:30am 20.8 19.5 20.6 99 0.1 WSW 28 35 15 19 1010.4 1010.4 3.0
24/12:00am 20.5 19.4 20.2 98 0.2 SW 26 37 14 20 1010.0 1010.0 3.0
 
Date/Time
CDT
Temp
°C
App
Temp
°C
Dew
Point
°C
Rel
Hum
%
Delta-T
°C
Wind Press
QNH
hPa
Press
MSL
hPa
Rain since
9am
mm
Dir  Spd
km/h
Gust
km/h
Spd
kts
Gust
kts
23/11:36pm 20.4 19.8 20.4 100 0.0 WSW 24 35 13 19 1009.4 1009.4 3.0
23/11:30pm 20.4 19.4 20.4 100 0.0 WSW 26 41 14 22 1009.3 1009.3 2.8
23/11:23pm 20.4 18.6 20.4 100 0.0 WSW 30 43 16 23 1009.3 1009.3 2.8
23/11:16pm 20.6 18.5 20.6 100 0.0 WSW 32 44 17 24 1009.1 1009.1 2.8
23/11:00pm 21.1 19.7 21.1 100 0.0 WSW 30 44 16 24 1008.8 1008.8 2.8
23/10:57pm 21.5 20.6 21.5 100 0.0 W 28 44 15 24 1008.6 1008.6 2.8
23/10:30pm 22.7 24.2 22.7 100 0.0 W 19 24 10 13 1008.2 1008.2 2.4
23/10:25pm 22.8 24.2 22.8 100 0.0 W 20 28 11 15 1008.2 1008.2 2.4
23/10:00pm 23.5 24.7 22.5 94 0.7 W 20 26 11 14 1007.9 1007.9 2.4
23/09:44pm 23.9 26.6 22.9 94 0.7 WNW 13 19 7 10 1007.8 1007.8 2.4
23/09:30pm 23.8 26.9 22.8 94 0.7 WNW 11 15 6 8 1007.7 1007.7 2.4
23/09:00pm 23.8 27.3 22.8 94 0.7 NW 9 13 5 7 1007.5 1007.5 2.4
23/08:30pm 23.8 27.0 22.4 92 0.9 WNW 9 13 5 7 1007.0 1007.0 2.4
23/08:00pm 24.0 27.2 22.3 90 1.1 WNW 9 15 5 8 1006.2 1006.2 2.4
23/07:30pm 24.1 26.8 22.2 89 1.3 NNW 11 15 6 8 1005.4 1005.4 2.4
23/07:00pm 24.4 27.5 22.8 91 1.1 N 11 13 6 7 1005.2 1005.2 2.4
23/06:30pm 24.2 27.2 22.6 91 1.1 N 11 13 6 7 1005.0 1005.0 2.4
23/06:00pm 24.0 26.8 22.3 90 1.1 NE 11 15 6 8 1004.7 1004.7 2.4
23/05:30pm 24.1 27.6 21.8 87 1.5 SSE 6 7 3 4 1004.7 1004.7 2.0
23/05:00pm 24.4 28.7 21.9 86 1.7 SSE 2 9 1 5 1005.4 1005.4 1.8
23/04:30pm 24.1 25.7 21.4 85 1.8 WSW 15 22 8 12 1006.2 1006.2 1.6
23/04:00pm 25.7 27.1 21.1 76 3.0 SW 15 20 8 11 1005.8 1005.8 1.0
23/03:30pm 25.5 27.8 22.0 81 2.3 WSW 13 19 7 10 1006.1 1006.1 1.0
23/03:00pm 25.8 28.9 21.5 77 2.9 WSW 7 11 4 6 1005.5 1005.5 1.0
23/02:30pm 25.2 27.7 21.7 81 2.3 SSE 11 15 6 8 1004.9 1004.9 1.0
23/02:00pm 23.8 26.4 21.9 89 1.3 SE 11 17 6 9 1005.2 1005.2 1.0
23/01:30pm 23.1 24.1 21.0 88 1.4 SSW 17 26 9 14 1006.1 1006.1 1.0
23/01:00pm 25.4 25.3 20.0 72 3.5 WSW 20 32 11 17 1006.3 1006.3 0.0
23/12:30pm 27.6 28.0 17.2 53 6.5 S 11 17 6 9 1005.7 1005.7 0.0
23/12:00pm 26.9 24.8 17.1 55 6.1 SW 24 32 13 17 1006.1 1006.1 0.0
23/11:30am 27.2 26.0 17.1 54 6.3 WSW 19 24 10 13 1006.1 1006.1 0.0
23/11:00am 30.6 28.3 13.0 34 10.5 WNW 17 20 9 11 1005.1 1005.1 0.0
23/10:30am 31.8 29.5 10.5 27 12.3 NNW 13 17 7 9 1004.4 1004.4 0.0
23/10:00am 31.8 29.3 11.0 28 12.0 N 15 20 8 11 1004.3 1004.3 0.0
23/09:30am 31.6 28.9 10.3 27 12.2 N 15 24 8 13 1004.3 1004.3 0.0
23/09:00am 32.1 29.8 11.8 29 12.0 N 15 20 8 11 1004.1 1004.1 0.0
23/08:30am 28.7 29.0 14.5 42 8.6 N 6 7 3 4 1004.3 1004.3 0.0
23/08:00am 26.3 28.4 16.3 54 6.2 CALM 0 2 0 1 1004.2 1004.2 0.0
23/07:30am 24.2 26.5 16.7 63 4.6 CALM 0 0 0 0 1003.9 1003.9 0.0
23/07:00am 23.1 24.9 15.4 62 4.6 CALM 0 0 0 0 1004.0 1004.0 0.0
23/06:30am 22.4 23.0 15.3 64 4.2 SW 6 7 3 4 1003.9 1003.9 0.0
23/06:00am 23.2 23.3 14.5 58 5.2 WSW 7 9 4 5 1003.8 1003.8 0.0
23/05:30am 24.2 24.5 12.2 47 6.9 N 2 6 1 3 1003.6 1003.6 0.0
23/05:00am 24.9 24.7 13.1 48 6.9 NW 6 9 3 5 1003.5 1003.5 0.0
23/04:30am 25.0 25.2 13.2 48 6.9 NNE 4 7 2 4 1003.7 1003.7 0.0
23/04:00am 25.9 25.6 10.1 37 8.8 NW 2 7 1 4 1003.9 1003.9 0.0
23/03:30am 26.7 24.9 9.5 34 9.5 ENE 9 11 5 6 1004.1 1004.1 0.0
23/03:00am 26.6 26.4 9.0 33 9.7 CALM 0 6 0 3 1004.2 1004.2 0.0
23/02:30am 26.7 24.8 9.1 33 9.7 ENE 9 15 5 8 1004.9 1004.9 0.0
23/02:00am 26.2 25.0 10.4 37 8.8 SE 7 11 4 6 1005.7 1005.7 0.0
23/01:30am 26.1 25.0 9.9 36 9.0 ESE 6 9 3 5 1006.4 1006.4 0.0
23/01:00am 26.0 24.1 10.6 38 8.6 ESE 11 17 6 9 1006.9 1006.9 0.0
23/12:30am 25.5 27.1 14.9 52 6.4 CALM 0 6 0 3 1007.2 1007.2 0.0
23/12:00am 25.7 25.0 13.2 46 7.3 SSE 9 13 5 7 1007.4 1007.4 0.0
 
Date/Time
CDT
Temp
°C
App
Temp
°C
Dew
Point
°C
Rel
Hum
%
Delta-T
°C
Wind Press
QNH
hPa
Press
MSL
hPa
Rain since
9am
mm
Dir  Spd
km/h
Gust
km/h
Spd
kts
Gust
kts
22/11:30pm 26.3 23.6 11.6 40 8.4 SSE 17 19 9 10 1007.1 1007.1 0.0
22/11:00pm 26.8 26.9 13.9 45 7.7 WNW 6 9 3 5 1007.2 1007.2 0.0
22/10:30pm 28.0 27.0 11.1 35 9.7 ESE 7 13 4 7 1006.8 1006.8 0.0
22/10:00pm 27.1 27.0 10.8 36 9.2 SSE 2 7 1 4 1006.8 1006.8 0.0
22/09:30pm 26.9 25.6 9.3 33 9.7 S 6 7 3 4 1007.0 1007.0 0.0
22/09:00pm 27.1 26.0 10.8 36 9.2 S 7 9 4 5 1007.2 1007.2 0.0
22/08:30pm 27.5 25.3 10.7 35 9.5 SSW 13 15 7 8 1007.6 1007.6 0.0
22/08:00pm 28.4 24.4 9.2 30 10.6 SSW 20 28 11 15 1007.7 1007.7 0.0
22/07:30pm 29.6 28.3 11.2 32 10.6 S 9 13 5 7 1007.6 1007.6 0.0
22/07:00pm 31.6 29.9 9.8 26 12.4 SW 9 13 5 7 1007.4 1007.4 0.0
22/06:30pm 32.5 29.0 8.7 23 13.4 WSW 17 19 9 10 1007.4 1007.4 0.0
22/06:00pm 31.4 27.9 10.2 27 12.1 WSW 19 26 10 14 1007.5 1007.5 0.0
22/05:30pm 31.8 28.3 11.0 28 12.1 WSW 20 26 11 14 1007.5 1007.5 0.0
22/05:00pm 32.5 29.3 11.1 27 12.5 WSW 19 24 10 13 1007.7 1007.7 0.0
22/04:30pm 32.6 30.2 8.8 23 13.4 WSW 11 17 6 9 1007.9 1007.9 0.0
22/04:00pm 32.0 28.9 8.9 24 13.0 WSW 15 22 8 12 1008.2 1008.2 0.0
22/03:30pm 32.2 28.7 10.3 26 12.6 WSW 19 28 10 15 1008.5 1008.5 0.0
22/03:00pm 32.3 29.5 11.5 28 12.2 WSW 17 24 9 13 1008.6 1008.6 0.0
22/02:30pm 32.4 30.5 9.2 24 13.1 W 9 17 5 9 1008.8 1008.8 0.0
22/02:00pm 31.8 28.8 10.5 27 12.2 WNW 17 28 9 15 1009.2 1009.2 0.0
22/01:30pm 32.3 31.1 10.4 26 12.6 NW 7 22 4 12 1009.6 1009.6 0.0
22/01:00pm 31.9 28.6 9.4 25 12.7 NW 17 22 9 12 1010.1 1010.1 0.0
22/12:30pm 30.8 27.1 7.9 24 12.6 NNE 17 24 9 13 1010.8 1010.8 0.0
22/12:00pm 30.3 27.1 9.8 28 11.6 N 17 28 9 15 1011.3 1011.3 0.0
22/11:30am 29.8 25.6 9.9 29 11.2 NNE 22 33 12 18 1011.7 1011.7 0.0
22/11:00am 29.0 23.8 8.7 28 11.2 NNE 26 33 14 18 1012.0 1012.0 0.0
22/10:30am 29.0 24.9 8.7 28 11.2 NE 20 30 11 16 1012.1 1012.1 0.0
22/10:00am 28.3 24.8 8.6 29 10.8 NNE 17 24 9 13 1012.3 1012.3 0.0
22/09:30am 27.2 24.5 10.4 35 9.4 NE 15 20 8 11 1012.5 1012.5 0.0
22/09:00am 25.1 25.0 12.0 44 7.5 W 4 7 2 4 1012.7 1012.7 0.0
22/08:30am 23.8 23.3 12.8 50 6.3 N 7 9 4 5 1012.4 1012.4 0.0
22/08:00am 22.8 20.9 10.6 46 6.7 N 11 13 6 7 1012.4 1012.4 0.0
22/07:30am 20.9 19.5 11.0 53 5.4 N 9 15 5 8 1012.1 1012.1 0.0
22/07:00am 19.9 17.9 10.0 53 5.3 NNW 11 15 6 8 1011.8 1011.8 0.0
22/06:30am 18.8 17.1 9.8 56 4.8 ENE 9 15 5 8 1011.8 1011.8 0.0
22/06:00am 19.1 16.0 10.4 57 4.7 ENE 17 24 9 13 1011.3 1011.3 0.0
22/05:30am 20.3 18.0 10.4 53 5.4 ENE 13 17 7 9 1011.3 1011.3 0.0
22/05:00am 20.3 19.0 11.2 56 5.0 NE 9 11 5 6 1011.2 1011.2 0.0
22/04:30am 19.3 18.5 11.6 61 4.2 ENE 7 11 4 6 1011.0 1011.0 0.0
22/04:00am 20.0 18.4 11.5 58 4.7 ENE 11 19 6 10 1011.3 1011.3 0.0
22/03:30am 19.8 19.0 11.8 60 4.4 ENE 7 11 4 6 1011.3 1011.3 0.0
22/03:00am 19.3 18.7 12.3 64 3.9 E 7 15 4 8 1011.4 1011.4 0.0
22/02:30am 19.8 18.5 12.6 63 4.0 E 11 20 6 11 1012.0 1012.0 0.0
22/02:00am 19.3 18.0 12.6 65 3.8 E 11 19 6 10 1012.2 1012.2 0.0
22/01:30am 19.1 18.2 12.6 66 3.6 E 9 15 5 8 1012.5 1012.5 0.0
22/01:00am 18.3 17.4 12.5 69 3.2 E 9 15 5 8 1012.7 1012.7 0.0
22/12:30am 19.1 16.1 12.4 65 3.7 ESE 20 30 11 16 1012.7 1012.7 0.0
22/12:00am 19.4 14.8 12.2 63 4.0 ESE 28 37 15 20 1012.6 1012.6 0.0
 
Date/Time
CDT
Temp
°C
App
Temp
°C
Dew
Point
°C
Rel
Hum
%
Delta-T
°C
Wind Press
QNH
hPa
Press
MSL
hPa
Rain since
9am
mm
Dir  Spd
km/h
Gust
km/h
Spd
kts
Gust
kts
21/11:30pm 19.6 14.3 12.4 63 4.0 ESE 32 41 17 22 1012.6 1012.6 0.0
21/11:00pm 19.8 14.4 12.1 61 4.3 ESE 32 43 17 23 1012.7 1012.7 0.0
21/10:30pm 19.8 15.7 12.8 64 3.9 ESE 26 37 14 20 1013.1 1013.1 0.0
21/10:00pm 20.3 15.5 13.0 63 4.1 ESE 30 37 16 20 1013.2 1013.2 0.0
21/09:30pm 21.0 17.4 12.9 60 4.6 SE 24 33 13 18 1013.0 1013.0 0.0
21/09:00pm 21.9 19.2 13.0 57 5.1 SE 19 28 10 15 1013.0 1013.0 0.0
21/08:30pm 22.7 20.0 13.5 56 5.3 SE 20 26 11 14 1012.7 1012.7 0.0
21/08:00pm 23.4 22.8 14.7 58 5.2 SSW 11 15 6 8 1012.5 1012.5 0.0
21/07:30pm 24.2 22.6 14.0 53 6.0 SW 15 20 8 11 1012.3 1012.3 0.0
21/07:00pm 24.4 21.8 13.3 50 6.5 SSW 19 24 10 13 1011.9 1011.9 0.0
21/06:30pm 24.9 22.1 13.1 48 6.9 SW 20 28 11 15 1011.8 1011.8 0.0
21/06:00pm 25.0 22.2 13.2 48 6.9 SW 20 26 11 14 1011.8 1011.8 0.0
21/05:30pm 25.6 22.5 13.5 47 7.1 SW 22 28 12 15 1012.1 1012.1 0.0
21/05:00pm 26.5 23.8 13.6 45 7.6 SW 20 28 11 15 1012.2 1012.2 0.0
21/04:30pm 26.4 23.3 13.5 45 7.6 SW 22 33 12 18 1012.3 1012.3 0.0
21/04:00pm 26.4 23.8 13.2 44 7.7 SSW 19 24 10 13 1012.6 1012.6 0.0
21/03:30pm 26.2 23.9 13.0 44 7.7 SSW 17 24 9 13 1012.7 1012.7 0.0
21/03:00pm 25.5 22.5 12.0 43 7.7 SW 19 26 10 14 1013.1 1013.1 0.0
21/02:30pm 26.0 24.5 13.2 45 7.5 WSW 13 24 7 13 1013.2 1013.2 0.0
21/02:00pm 26.2 25.0 11.5 40 8.4 N 9 15 5 8 1013.4 1013.4 0.0
21/01:30pm 25.4 23.9 10.4 39 8.3 ESE 9 15 5 8 1013.6 1013.6 0.0
21/01:00pm 24.5 23.8 11.5 44 7.3 E 6 15 3 8 1013.9 1013.9 0.0
21/12:30pm 23.7 22.7 11.1 45 7.0 ENE 7 17 4 9 1014.3 1014.3 0.0
21/12:00pm 23.3 22.0 11.4 47 6.7 ENE 9 15 5 8 1014.5 1014.5 0.0
21/11:30am 22.6 21.1 10.7 47 6.6 NE 9 15 5 8 1014.7 1014.7 0.0
21/11:00am 22.1 20.4 9.9 46 6.6 ESE 9 17 5 9 1014.9 1014.9 0.0
21/10:30am 20.8 18.6 9.4 48 6.1 ENE 11 19 6 10 1015.3 1015.3 0.0
21/10:00am 20.6 18.3 10.4 52 5.5 E 13 20 7 11 1015.4 1015.4 0.0
21/09:30am 19.0 17.0 10.3 57 4.7 ENE 11 19 6 10 1015.6 1015.6 0.0
21/09:00am 18.2 16.7 10.6 61 4.1 ENE 9 15 5 8 1015.5 1015.5 0.2
21/08:30am 17.6 16.3 11.2 66 3.5 ESE 9 17 5 9 1015.6 1015.6 0.2
21/08:00am 16.6 15.0 11.5 72 2.8 E 11 17 6 9 1015.0 1015.0 0.2
21/07:30am 15.6 13.5 11.2 75 2.4 ESE 13 17 7 9 1014.6 1014.6 0.2
21/07:00am 14.2 14.4 11.9 86 1.2 E 2 7 1 4 1014.4 1014.4 0.2
21/06:30am 13.5 13.8 11.0 85 1.3 CALM 0 0 0 0 1014.0 1014.0 0.2
21/06:00am 13.6 11.5 11.0 84 1.4 SE 13 17 7 9 1013.8 1013.8 0.2
21/05:30am 13.0 12.2 10.9 87 1.1 S 6 9 3 5 1013.7 1013.7 0.2
21/05:00am 13.0 12.0 11.1 88 1.0 SE 7 11 4 6 1013.5 1013.5 0.2
21/04:30am 13.3 13.8 11.5 89 1.0 CALM 0 0 0 0 1013.3 1013.3 0.2
21/04:00am 14.0 14.6 12.0 88 1.1 CALM 0 6 0 3 1013.3 1013.3 0.2
21/03:30am 13.8 13.1 11.3 85 1.3 ESE 6 7 3 4 1013.1 1013.1 0.2

Latest Capital City Observations: Canberra | Sydney | Melbourne | Brisbane | Adelaide | Perth | Hobart | Darwin

Other Formats:

Comma delimited format used in spreadsheet applications
http://www.bom.gov.au/fwo/IDS60901/IDS60901.95677.axf

JavaScript Object Notation format (JSON) in row-major order
http://www.bom.gov.au/fwo/IDS60901/IDS60901.95677.json